Location: Cheyres
(46.8153°N, 6.7877°E)
Time: 15:06:43
(UTC+00:00)

Cosmos 990 Rocket - Pass Details

Date: 25 September 2021
Orbit: 746 x 769 km, 74.0° (Epoch: 18 October)

Event Time Altitude Azimuth Distance (km) Brightness Sun altitude
Exits shadow 20:57:08 35° 319° (NW) 1,203 5.4 -34.3°
Drops below altitude 10° 21:01:14 10° 8° (N) 2,296 6.8 -34.8°
Sets 21:03:48 0° 17° (NNE) 3,230 7.6 -35.1°
